Hourly Weather Roundup
Issued by NWS Central Illinois

Home | Current Version | Previous Version | Text Only | Print | Product List | Glossary On
Versions: 1 2 3 4 5 6 7 8 9 10 11 12 13 14 15 16 17 18 19 20 21 22 23 24 25 26 27 28 29 30 31 32 33 34 35 36 37 38 39 40 41 42 43 44 45 46 47 48 49 50
000
NZUS43 KILX 250910
HWRILX

Area Weather Roundup
National Weather Service Lincoln IL
300 AM CST SAT NOV 25 2017

NOTE:  "FAIR" indicates few or no clouds below 12,000 feet, with
       no sigificant weather and/or obstructions to visibility.


CITY           SKY/WX    TMP DP  RH WIND       PRES   REMARKS
Bloomington    CLEAR     45  41  86 NW14      29.83R
Champaign      CLOUDY    45  41  86 NW10      29.79R
Danville       CLOUDY    46  40  81 W10       29.73R
Decatur        CLOUDY    49  42  77 NW16G24   29.82R
Effingham      CLOUDY    46  39  77 W8        29.82R
Flora          PTCLDY    53  38  57 W9        29.82R
Galesburg      CLEAR     37  35  89 W6        29.87R WCI  33
Jacksonville   CLEAR     46  37  71 MISG      29.87R
Lacon          CLEAR     44  38  81 NW12G20   29.83R
Lawrenceville  PTCLDY    48  36  63 W6        29.80R
Litchfield     CLOUDY    47  41  80 NW13      29.85R
$$


CITY           SKY/WX    TMP DP  RH WIND       PRES   REMARKS
Lincoln        CLEAR     47  41  82 NW6       29.84R
Macomb         CLEAR     42  36  80 NW12      29.90R WCI  35
Mattoon        MOCLDY    48  41  76 NW16      29.79R
Mt Carmel AP   CLOUDY    48  35  61 W5        29.80R
Olney-Noble AP PTCLDY    47  35  62 W3        29.82R
Paris AP       PTCLDY    46  39  77 W12       29.78R
Peoria         CLEAR     45  38  76 NW10G20   29.85R
Pontiac        CLEAR     46  45  97 NW15      29.81R
Rantoul        CLOUDY    49  44  84 NW16      29.78R
Robinson       MOCLDY    48  37  64 W10       29.80R
Springfield    CLEAR     49  41  74 NW14      29.86R
Taylorville    CLEAR     49  41  74 NW14G22   29.84R
$$

...REGIONAL REPORTS...


CITY           SKY/WX    TMP DP  RH WIND       PRES   REMARKS
Chicago O`Hare PTCLDY    48  37  65 NW17      29.72R
Kankakee       CLEAR     44  40  86 W10       29.76R
Moline         CLEAR     42  34  73 W8        29.85R
Mount Sterling PTCLDY    43  36  75 NW17      29.88R
Mount Vernon   PTCLDY    51  38  60 W3        29.83R
Pittsfield     CLEAR     47  37  66 NW10      29.91R
Quincy         CLEAR     44  36  73 NW13      29.90R
Rockford       PTCLDY    42  37  82 W10       29.79R
$$


CITY           SKY/WX    TMP DP  RH WIND       PRES   REMARKS
Burlington     CLEAR     43  36  76 NW8       29.89R
Cedar Rapids   CLEAR     37  33  85 NW12      29.88R WCI  29
Des Moines     CLEAR     40  33  76 W9        29.96R WCI  34
Kirksville     CLEAR     45  36  70 NW10      29.96R
Ottumwa        PTCLDY    40  32  73 NW12      29.93R WCI  33
St Louis       PTCLDY    53  42  66 NW10      29.88R
$$


CITY           SKY/WX    TMP DP  RH WIND       PRES   REMARKS
Terre Haute    CLOUDY    47  36  65 W8        29.77R
Evansville     MOCLDY    46  36  68 SW7       29.81R
Indianapolis   PTCLDY    46  34  62 W12       29.75R
Lafayette      CLOUDY    45  39  79 W5        29.73R
Madison        CLEAR     42  34  73 NW8       29.74R
Milwaukee      PTCLDY    46  35  65 NW9       29.70R
$$





USA.gov is the U.S. government's official web portal to all federal, state and local government web resources and services.